カタログに戻る

FENGYUN 1C DEB

運用中SSO
NORAD 38125·DEBRIS·🇨🇳 China

打ち上げ May 10, 1999 から Taiyuan Satellite Launch Center

Loading…

次のパス (今後24時間)

TLE

最新Source: Space-Track

元期: Sep 14, 2026, 10:13 UTC

1 38125U 99025EPW 26257.42628682  .00000352  00000-0  52363-3 0  9996
2 38125 100.2188 326.8633 0408268  18.8735 342.7035 13.31311504855028

AllMySatでFENGYUN 1C DEBをリアルタイム追跡

Download on the App Store